Terminal Aerodrome Forecast
Issued by NWS Norman, OK

Home | Current Version | Previous Version | Text Only | Print | Product List | Glossary On
Versions: 1 2 3 4 5 6 7 8 9 10 11 12 13 14 15 16 17 18 19 20 21 22 23 24 25 26 27 28 29 30
000
FTUS44 KOUN 042320
TAFOKC
TAF
KOKC 042320Z 0500/0524 29011KT P6SM VCTS SCT030CB BKN050
     FM050200 15009KT P6SM SCT030 SCT100
     FM051400 19012KT P6SM SCT050 SCT250
     FM051900 18014G20KT P6SM BKN050=

USA.gov is the U.S. government's official web portal to all federal, state and local government web resources and services.